Погода в Егорьевке

Россия / Оренбургская область     52°07′35″N   55°01′52″E
темп.,
°C
ветер,
м/с
пор.,
м/с
влажн.,
%
обл.,
%
осадки,
мм/ч
давл.,
гПа
погр.,
м
20 апреля, вт
вт2023:00+3в7124394 0.0 1027846
02:00+1в61245100 0.0 1029673
05:00−1в6125099 0.0 1030610
08:000в711430 0.0 1032716
11:00+3вюв89300 0.0 10321074
14:00+7вюв89250 0.0 10311386
17:00+8вюв78260 0.0 10301471
20:00+6вюв6103794 0.0 1030456
21 апреля, ср
ср2123:00+3вюв51149100 0.0 1032314
02:00+2вюв41152100 0.0 1032301
05:000юв4115864 0.0 1033266
08:00+2юв6124865 0.0 1032533
11:00+6юв8113499 0.0 1031864
14:00+10ююв81028100 0.0 10301257
17:00+11ююв71032100 0.0 10291364
20:00+9ююв61140100 0.0 1029408
22 апреля, чт
чт2223:00+8ююв71347100 0.0 1029722
02:00+7ююв61354100 0.0 1030559
05:00+6ююв61257100 0.0 1031579
08:00+5ююв61159100 0.0 1031541
11:00+4ю71287100 0.2 1032669
14:00+9ююв6952100 0.3 10311036
17:00+8ю81056100 0.3 10311085
20:00+4ююв4988100 0.7 1032514
23 апреля, пт
пт2323:00+5ююв61090100 3.4 1031858
02:00+5ююв51093100 1.4 1029971
05:00+5вюв3690100 1.9 1029191
08:00+6в498154 0.0 1028382
11:00+11юв4556100 0.0 1027690
14:00+14ююв4644100 0.0 10251143
17:00+15ююв7741100 0.0 10242038
20:00+8ююв6983100 0.6 10251050
24 апреля, сб
сб2423:00+7ююв4788100 2.7 10241029
02:00+6вюв5991100 1.1 10211123
05:00+6в5693100 3.1 1018824
08:00+6всв5990100 1.4 1016361
11:00+9в71075100 1.7 10131142
14:00+10в5755100 1.2 10111365
17:00+10с6962100 1.2 1009456
20:00+8сз71079100 0.3 1010557